Weather History for Grants-Milan, NM

Change the Weather History Date:

Tuesday, April 23, 2013

  Actual Average Record
Temperature  
Mean Temperature 52 °F -  
Max Temperature 68 °F 69 °F 82 °F (2012)
Min Temperature 36 °F 31 °F 16 °F (1970)
Degree Days  
Heating Degree Days 12    
Growing Degree Days 2 (Base 50)    
Moisture  
Dew Point 11 °F    
Average Humidity 19    
Maximum Humidity 33    
Minimum Humidity 8    
Precipitation  
Precipitation 0.00 in - - ()
Sea Level Pressure  
Sea Level Pressure 30.01 in    
Wind  
Wind Speed 13 mph (NW)    
Max Wind Speed 29 mph    
Max Gust Speed 40 mph    
Visibility 10 miles    
Events      
Averages and records for this station are not official NWS values.
T = Trace of Precipitation, MM = Missing Value Source: NWS Daily Summary

Daily Weather History Graph

Daily Weather History Graph

Search for Another Location

Airport:

Trip Planner

Search our weather history database for the weather conditions in past years. The results will help you decide how hot, cold, wet, or windy it might be!

Date:

Astronomy

Apr. 23, 2013 Rise Set
Actual Time 6:29 AM MDT 7:51 PM MDT
Civil Twilight 6:02 AM MDT 8:17 PM MDT
Nautical Twilight 5:30 AM MDT 8:49 PM MDT
Astronomical Twilight 4:57 AM MDT 9:22 PM MDT
Moon 5:53 PM MDT (4/23) 4:53 AM MDT (4/23)
Length of Visible Light 14h 15m
Length of Day
13h 21m
Waxing Gibbous, 94% of the Moon is Illuminated
Apr 23
Waxing Gibbous
Apr 25
Full
May 2
Last Quarter
May 9
New
May 17
First Quarter

Hourly Weather History & Observations

Time (MDT) Temp. Windchill Dew Point Humidity Pressure Visibility Wind Dir Wind Speed Gust Speed Precip Events Conditions
12:15 AM 59.9 °F - 16.0 °F 18% 29.98 in 10.0 mi West 18.4 mph 24.2 mph N/A   Clear
12:35 AM 59.4 °F - 16.7 °F 19% 29.98 in 10.0 mi West 16.1 mph 24.2 mph N/A   Clear
12:55 AM 58.8 °F - 16.7 °F 19% 29.98 in 10.0 mi WSW 15.0 mph 25.3 mph N/A   Clear
1:15 AM 58.1 °F - 17.2 °F 20% 29.98 in 10.0 mi WSW 13.8 mph 19.6 mph N/A   Clear
1:35 AM 57.9 °F - 17.6 °F 21% 29.97 in 10.0 mi WSW 13.8 mph 19.6 mph N/A   Clear
1:55 AM 57.4 °F - 17.8 °F 21% 29.97 in 10.0 mi WSW 9.2 mph - N/A   Clear
2:15 AM 56.5 °F - 18.1 °F 22% 29.97 in 10.0 mi West 5.8 mph - N/A   Clear
2:35 AM 56.5 °F - 18.5 °F 23% 29.96 in 10.0 mi West 5.8 mph - N/A   Clear
2:55 AM 55.6 °F - 18.5 °F 23% 29.96 in 10.0 mi WSW 4.6 mph - N/A   Clear
3:15 AM 54.5 °F - 18.3 °F 24% 29.95 in 10.0 mi West 3.5 mph - N/A   Clear
3:35 AM 53.4 °F - 17.8 °F 25% 29.95 in 10.0 mi Calm Calm - N/A   Clear
3:55 AM 48.0 °F - 17.2 °F 29% 29.95 in 10.0 mi East 5.8 mph - N/A   Clear
4:15 AM 48.0 °F - 17.6 °F 30% 29.95 in 10.0 mi ESE 8.1 mph - N/A   Clear
4:35 AM 45.5 °F 41.8 °F 17.1 °F 32% 29.95 in 10.0 mi SE 6.9 mph - N/A   Clear
4:55 AM 43.9 °F 41.3 °F 16.2 °F 33% 29.95 in 10.0 mi SSE 4.6 mph - N/A   Clear
5:15 AM 45.5 °F - 17.1 °F 32% 29.95 in 10.0 mi Calm Calm - N/A   Clear
5:35 AM 47.5 °F - 17.6 °F 30% 29.94 in 10.0 mi WSW 6.9 mph - N/A   Clear
5:55 AM 54.3 °F - 18.3 °F 24% 29.93 in 10.0 mi WSW 16.1 mph 21.9 mph N/A   Clear
6:15 AM 54.5 °F - 18.5 °F 24% 29.94 in 10.0 mi WSW 15.0 mph 21.9 mph N/A   Clear
6:35 AM 52.3 °F - 18.1 °F 26% 29.97 in 10.0 mi NE 9.2 mph 18.4 mph N/A   Clear
6:55 AM 46.2 °F 42.7 °F 16.9 °F 31% 29.98 in 10.0 mi North 6.9 mph - N/A   Clear
7:15 AM 50.9 °F - 18.1 °F 27% 29.99 in 10.0 mi North 8.1 mph - N/A   Clear
7:35 AM 52.5 °F - 18.5 °F 26% 29.99 in 10.0 mi NW 5.8 mph - N/A   Clear
7:55 AM 54.3 °F - 19.4 °F 26% 30.00 in 10.0 mi NNW 13.8 mph 18.4 mph N/A   Clear
8:15 AM 51.8 °F - 21.2 °F 30% 30.01 in 10.0 mi NNW 20.7 mph - N/A   Clear
8:35 AM 52.0 °F - 22.1 °F 31% 30.01 in 10.0 mi NNW 15.0 mph - N/A   Clear
8:55 AM 52.3 °F - 22.1 °F 31% 30.01 in 10.0 mi NNW 13.8 mph - N/A   Clear
9:15 AM 53.6 °F - 22.3 °F 30% 30.01 in 10.0 mi NNW 15.0 mph - N/A   Clear
9:35 AM 53.8 °F - 21.9 °F 29% 30.01 in 10.0 mi North 11.5 mph 18.4 mph N/A   Clear
9:55 AM 54.5 °F - 21.9 °F 28% 30.01 in 10.0 mi NNW 12.7 mph 18.4 mph N/A   Clear
10:15 AM 56.3 °F - 21.7 °F 26% 30.01 in 10.0 mi North 10.4 mph - N/A   Clear
10:35 AM 56.3 °F - 21.7 °F 26% 30.01 in 10.0 mi NW 12.7 mph 19.6 mph N/A   Clear
10:55 AM 57.6 °F - 21.9 °F 25% 30.01 in 10.0 mi NNW 6.9 mph 17.3 mph N/A   Clear
11:15 AM 58.8 °F - 21.9 °F 24% 30.01 in 10.0 mi NNW 11.5 mph 19.6 mph N/A   Clear
11:35 AM 59.5 °F - 21.9 °F 23% 30.01 in 10.0 mi North 9.2 mph 17.3 mph N/A   Clear
11:55 AM 61.7 °F - 21.7 °F 22% 30.00 in 10.0 mi North 10.4 mph 20.7 mph N/A   Scattered Clouds
12:15 PM 62.1 °F - 21.9 °F 21% 30.00 in 10.0 mi North 11.5 mph - N/A   Mostly Cloudy
12:35 PM 62.6 °F - 22.3 °F 21% 29.98 in 10.0 mi NNW 9.2 mph - N/A   Mostly Cloudy
12:55 PM 62.1 °F - 21.2 °F 21% 29.98 in 10.0 mi WNW 8.1 mph 19.6 mph N/A   Mostly Cloudy
1:15 PM 68.7 °F - 20.5 °F 16% 29.98 in 10.0 mi West 16.1 mph 27.6 mph N/A   Mostly Cloudy
1:35 PM 67.3 °F - 20.1 °F 17% 29.97 in 10.0 mi WNW 23.0 mph 35.7 mph N/A   Scattered Clouds
1:55 PM 67.3 °F - 18.7 °F 16% 29.96 in 10.0 mi West 24.2 mph 39.1 mph N/A   Mostly Cloudy
2:15 PM 63.7 °F - 19.0 °F 18% 29.97 in 10.0 mi North 21.9 mph 34.5 mph N/A   Overcast
2:35 PM 62.8 °F - 18.3 °F 18% 29.98 in 10.0 mi NW 26.5 mph 34.5 mph N/A   Overcast
2:55 PM 65.1 °F - 15.8 °F 15% 29.98 in 10.0 mi WNW 28.8 mph 39.1 mph N/A   Mostly Cloudy
3:15 PM 63.0 °F - 16.0 °F 16% 30.00 in 10.0 mi WNW 26.5 mph 39.1 mph N/A   Mostly Cloudy
3:35 PM 62.6 °F - 14.9 °F 16% 30.00 in 10.0 mi WNW 19.6 mph 40.3 mph N/A   Mostly Cloudy
3:55 PM 62.2 °F - 11.3 °F 14% 30.00 in 10.0 mi NW 21.9 mph 39.1 mph N/A   Mostly Cloudy
4:15 PM 64.4 °F - 5.9 °F 10% 30.01 in 10.0 mi NW 26.5 mph 33.4 mph N/A   Mostly Cloudy
4:35 PM 62.8 °F - -0.8 °F 8% 30.00 in 10.0 mi NW 28.8 mph 36.8 mph N/A   Scattered Clouds
4:55 PM 62.4 °F - -0.0 °F 8% 30.01 in 10.0 mi NW 26.5 mph 33.4 mph N/A   Clear
5:15 PM 62.6 °F - 1.0 °F 9% 30.01 in 10.0 mi NW 23.0 mph 34.5 mph N/A   Clear
5:35 PM 62.2 °F - 0.5 °F 8% 30.01 in 10.0 mi NW 25.3 mph 31.1 mph N/A   Clear
5:55 PM 61.2 °F - -0.6 °F 8% 30.03 in 10.0 mi NW 19.6 mph 32.2 mph N/A   Clear
6:15 PM 60.6 °F - -1.1 °F 8% 30.03 in 10.0 mi NNW 21.9 mph 29.9 mph N/A   Clear
6:35 PM 60.1 °F - -1.3 °F 8% 30.04 in 10.0 mi NNW 23.0 mph 28.8 mph N/A   Clear
6:55 PM 58.6 °F - -2.2 °F 8% 30.04 in 10.0 mi NNW 17.3 mph 28.8 mph N/A   Clear
7:15 PM 56.7 °F - -4.0 °F 8% 30.05 in 10.0 mi NNW 17.3 mph 26.5 mph N/A   Clear
7:35 PM 54.9 °F - -5.6 °F 8% 30.06 in 10.0 mi NNW 18.4 mph - N/A   Clear
7:55 PM 52.7 °F - -7.4 °F 8% 30.07 in 10.0 mi NNW 13.8 mph - N/A   Clear
8:15 PM 50.5 °F - -9.6 °F 8% 30.09 in 10.0 mi NNW 13.8 mph - N/A   Clear
8:35 PM 47.8 °F - -10.1 °F 9% 30.11 in 10.0 mi North 9.2 mph - N/A   Clear
8:55 PM 42.1 °F 37.1 °F -11.2 °F 10% 30.12 in 10.0 mi NW 8.1 mph - N/A   Clear
9:15 PM 42.1 °F 37.1 °F -11.2 °F 10% 30.12 in 10.0 mi NNW 8.1 mph - N/A   Clear
9:35 PM 39.2 °F 32.5 °F -11.9 °F 11% 30.13 in 10.0 mi NW 10.4 mph - N/A   Clear
9:55 PM 40.3 °F 33.9 °F -11.0 °F 11% 30.13 in 10.0 mi WNW 10.4 mph - N/A   Clear
10:15 PM 40.8 °F 34.5 °F -10.5 °F 11% 30.13 in 10.0 mi WNW 10.4 mph - N/A   Clear
10:35 PM 41.5 °F 35.4 °F -10.3 °F 11% 30.13 in 10.0 mi WNW 10.4 mph - N/A   Clear
10:55 PM 40.6 °F 34.8 °F -10.3 °F 11% 30.14 in 10.0 mi West 9.2 mph - N/A   Clear
11:15 PM 37.8 °F 33.3 °F -10.7 °F 12% 30.15 in 10.0 mi West 5.8 mph - N/A   Clear
11:35 PM 39.2 °F 32.0 °F -9.6 °F 12% 30.15 in 10.0 mi West 11.5 mph - N/A   Clear
11:55 PM 36.9 °F 33.1 °F -10.1 °F 13% 30.15 in 10.0 mi NNE 4.6 mph - N/A   Clear